Tiempo atmosférico en la estación meteorológica de Roncesvalles, Navarra (940 m.)



Fecha
DESCASC
Temp. máxima en grados centígrados (hora)
DESCASC
Temp. mínima en grados centígrados (hora)
DESCASC
Temp. media en grados centígrados
DESCASC
Racha de viento máxima en m/sg (hora)
DESCASC
Velocidad máxima media en intervalos de 10 minutos(hora)
DESCASC
Precipitaciones diarias en mm
DESCASC
Precipitaciones de 00:00 a 06:00 en mm
DESCASC
Precipitaciones de 06:00 a 12:00 en mm
DESCASC
Precipitaciones de 12:00 a 18:00 en mm
DESCASC
Precipitaciones de 18:00 a 24:00 en mm
DESCASC
18-05-2019 7.2 (15:20) 2.9 (00:00) 5 5.83 (17:10) 1.94 (16:40) 16.6 0.4 0.8 1.2 14.2
19-05-2019 7.1 (15:10) 3.3 (00:00) 5.2 7.22 (01:50) 2.22 (02:00) 68.2 26.2 12.4 20.4 9.2
02-05-2019 8.1 (16:10) 5.1 (23:40) 6.6 6.67 (14:10) 2.22 (16:30) 0 0 0 0 0
03-05-2019 6.3 (16:20) 1.9 (00:00) 4.1 6.67 (14:50) 2.5 (16:30) 19.4 0.4 8 6.2 4.8
27-04-2019 8.4 (16:00) 4.4 (00:00) 6.4 7.22 (22:10) 2.78 (14:10) 0.8 0 0 0.4 0.4
04-05-2019 10.3 (17:10) 3.7 (00:00) 7 7.22 (23:40) 3.06 (19:30) 9 0 0 0 9
20-05-2019 11.1 (17:10) 4.7 (02:50) 7.9 7.5 (23:00) 3.33 (15:00) 0.2 0 0.2 0 0
26-04-2019 8 (16:50) 3.2 (00:00) 5.6 7.78 (02:50) 3.61 (02:50) 12.2 0.6 6.4 5.2 0
17-05-2019 7.9 (00:00) 4.5 (00:00) 6.2 10 (16:30) 3.89 (01:30) 81.6 30.8 23.8 14.2 12.8
09-05-2019 14.5 (15:30) 1.6 (00:00) 8.1 8.33 (14:40) 3.89 (14:40) 7.4 0 0 0 7.4
11-05-2019 10.4 (16:40) 6 (00:00) 8.2 9.44 (10:30) 4.17 (05:00) 4.4 1.4 2.8 0.2 0
22-05-2019 16.3 (16:30) 7.1 (23:59) 11.7 8.06 (16:20) 4.44 (13:40) 0 0 0 0 0
06-05-2019 14.1 (16:10) 1.2 (00:00) 7.7 9.17 (07:50) 4.72 (08:00) 0 0 0 0 0
13-05-2019 13.1 (17:10) 3.2 (00:00) 8.2 12.22 (15:30) 4.72 (13:50) 0 0 0 0 0
12-05-2019 12.3 (16:10) 4.7 (00:00) 8.5 13.33 (15:40) 4.72 (15:30) 0 0 0 0 0
21-05-2019 12.3 (19:00) 6.3 (05:40) 9.3 9.17 (18:20) 5 (11:50) 0.2 0.2 0 0 0
23-05-2019 19.4 (13:00) 5.9 (06:10) 12.6 9.72 (17:00) 5 (16:50) 0.2 0 0 0 0.2
05-05-2019 6.8 (17:20) -1.2 (-00:0) 2.8 11.67 (17:10) 5 (16:20) 1 1 0 0 0
30-04-2019 13.2 (16:30) 5.9 (00:00) 9.5 10.28 (15:30) 5 (13:10) 0 0 0 0 0
16-05-2019 20 (14:50) 3.5 (00:00) 11.8 9.44 (17:30) 5.28 (16:20) 8.2 0 0 0 8.2
07-05-2019 18.3 (15:50) 3.7 (00:00) 11 8.89 (16:10) 5.28 (16:00) 0 0 0 0 0
10-05-2019 18 (17:30) 8.7 (00:00) 13.3 10.28 (21:40) 5.56 (21:40) 6.2 4.4 1.4 0 0.4
15-05-2019 16 (16:20) 9 (00:00) 12.5 10 (18:20) 5.56 (06:40) 0 0 0 0 0
29-04-2019 12.5 (16:30) 4 (00:00) 8.3 10.28 (10:40) 5.83 (10:30) 0 0 0 0 0
14-05-2019 15.3 (17:10) 2.3 (00:00) 8.8 11.94 (02:10) 6.11 (16:40) 0 0 0 0 0
08-05-2019 15.8 (18:00) 8.9 (00:00) 12.3 11.39 (14:50) 6.11 (10:30) 4.2 2.6 0.6 1 0
01-05-2019 14.6 (14:40) 3.4 (00:00) 9 10.83 (18:30) 6.11 (18:20) 0.2 0 0 0.2 0
28-04-2019 10.6 (15:20) 3.7 (00:00) 7.2 11.11 (18:00) 6.39 (18:30) 0 0 0 0 0

Gráficas

Temp. máximas Temp. mínimas Temp. medias Precipitaciones Rachas de viento máximas Velocidades máximas media en intervalos de 10 minutos

Datos horarios

Fecha y hora oficial Temperatura (ºC) Velocidad del viento (km/h) Dirección del viento Racha (km/h) Dirección de racha Precipitación (mm) Presión (hPa) Tendencia (hPa) Humedad (%)
2019-05-25 23:00:00 7.1 5 Sudoeste 15 Oeste 0 -- -- 99
2019-05-25 22:00:00 7.3 7 Noroeste 22 Norte 0 -- -- 98
2019-05-25 21:00:00 7.6 6 Norte 18 Noroeste 0 -- -- 97
2019-05-25 20:00:00 7.9 9 Sur 27 Oeste 0.2 -- -- 100
2019-05-25 19:00:00 8.6 4 Oeste 18 Noroeste 0.6 -- -- 100
2019-05-25 18:00:00 9.2 4 Sudoeste 16 Este 0 -- -- 99
2019-05-25 17:00:00 9.1 7 Sudeste 17 Este 0.8 -- -- 100
2019-05-25 16:00:00 9.5 6 Sur 18 Oeste 0 -- -- 99
2019-05-25 15:00:00 9.7 4 Sudoeste 24 Sudoeste 0.6 -- -- 100
2019-05-25 14:00:00 9.2 12 Norte 32 Noroeste 0.4 -- -- 100
2019-05-25 13:00:00 9 15 Norte 35 Norte 0.2 -- -- 98
2019-05-25 12:00:00 8.8 10 Norte 26 Norte 0 -- -- 99
2019-05-25 11:00:00 8.6 9 Nordeste 21 Nordeste 0 -- -- 100
2019-05-25 10:00:00 8.1 7 Nordeste 21 Sudeste 0 -- -- 100
2019-05-25 09:00:00 7.7 4 Sur 17 Sudoeste 0 -- -- 100
2019-05-25 08:00:00 7.4 4 Sur 21 Noroeste 0 -- -- 100
2019-05-25 07:00:00 7.4 6 Noroeste 20 Noroeste 0 -- -- 100
2019-05-25 06:00:00 7.3 7 Noroeste 30 Norte 0.2 -- -- 100
2019-05-25 05:00:00 7.3 5 Oeste 24 Oeste 0 -- -- 100
2019-05-25 04:00:00 7.6 6 Sudoeste 30 Oeste 0 -- -- 100
2019-05-25 03:00:00 7.5 6 Sur 20 Noroeste 0 -- -- 100
2019-05-25 02:00:00 7.3 6 Sur 32 Noroeste 0 -- -- 100
2019-05-25 01:00:00 7.4 12 Norte 28 Noroeste 0 -- -- 100
2019-05-25 00:00:00 7.8 9 Noroeste 30 Norte 0 -- -- 100
2019-05-24 23:00:00 7.7 11 Noroeste 32 Este 0.6 -- -- 100
2019-05-24 22:00:00 7.8 7 Este 22 Noroeste 0.2 -- -- 100
2019-05-24 21:00:00 8.4 8 Norte 26 Oeste 0 -- -- 100
2019-05-24 20:00:00 8.3 8 Sur 17 Norte 0 -- -- 100
2019-05-24 19:00:00 8.2 5 Noroeste 21 Sudoeste 0.2 -- -- 100
2019-05-24 18:00:00 8.3 5 Este 20 Noroeste 0.4 -- -- 100
2019-05-24 17:00:00 8.3 6 Noroeste 18 Norte 1.4 -- -- 99
2019-05-24 16:00:00 8.8 9 Norte 20 Nordeste 1 -- -- 97
2019-05-24 15:00:00 8.4 6 Sudoeste 21 Sudeste 1 -- -- 99
2019-05-24 14:00:00 8.5 6 Noroeste 21 Norte 0.2 -- -- 97
2019-05-24 13:00:00 8.3 4 Oeste 28 Noroeste 0.8 -- -- 98
2019-05-24 12:00:00 8.3 8 Noroeste 21 Norte 0 -- -- 96
2019-05-24 11:00:00 8.1 8 Noroeste 26 Norte 0 -- -- 97
2019-05-24 10:00:00 8.1 13 Norte 32 Norte 0.2 -- -- 95
2019-05-24 09:00:00 8 6 Oeste 20 Norte 1 -- -- 99
2019-05-24 08:00:00 8.4 3 Sudoeste 27 Norte 0.8 -- -- 99
2019-05-24 07:00:00 8.5 8 Nordeste 22 Norte 1 -- -- 98
2019-05-24 06:00:00 8.8 6 Nordeste 22 Norte 1 -- -- 98
2019-05-24 05:00:00 8.8 5 Noroeste 22 Noroeste 1.6 -- -- 99
2019-05-24 04:00:00 8.7 6 Noroeste 22 Norte 0.6 -- -- 100
2019-05-24 03:00:00 8.5 3 Noroeste 23 Noroeste 3 -- -- 100
2019-05-24 02:00:00 8.6 10 Norte 23 Norte 1.8 -- -- 98
2019-05-24 01:00:00 9 6 Norte 24 Norte 0 -- -- 95
2019-05-24 00:00:00 8.7 10 Norte 25 Norte 0 -- -- 99
2019-05-23 23:00:00 9.3 10 Norte 28 Norte 0 -- -- 91
2019-05-23 22:00:00 9.7 9 Norte 25 Norte 0 -- -- 88
2019-05-23 21:00:00 10.6 11 Nordeste 27 Norte 0 -- -- 87
2019-05-23 20:00:00 11.8 14 Norte 28 Nordeste 0 -- -- 92
2019-05-23 19:00:00 13.1 3 Nordeste 22 Noroeste 0.2 -- -- 94
2019-05-23 18:00:00 13.3 12 Noroeste 31 Nordeste 0 -- -- 85
2019-05-23 17:00:00 15.4 17 Norte 35 Norte 0 -- -- 86
2019-05-23 16:00:00 16.6 15 Norte 28 Norte 0 -- -- 77
2019-05-23 15:00:00 17.9 13 Norte 24 Nordeste 0 -- -- 64
2019-05-23 14:00:00 18.4 11 Norte 22 Norte 0 -- -- 56
2019-05-23 13:00:00 19.4 7 Nordeste 17 Noroeste 0 -- -- 56
2019-05-23 12:00:00 19 4 Este 9 Sudeste 0 -- -- 50
2019-05-23 11:00:00 17.3 3 Sur 5 Sur 0 -- -- 57
2019-05-23 10:00:00 17.4 0 Calma 3 Este 0 -- -- 55
2019-05-23 09:00:00 13.7 0 Calma 4 Sudeste 0 -- -- 78
2019-05-23 08:00:00 10.3 0 Calma 4 Norte 0 -- -- 87
2019-05-23 07:00:00 8.3 3 Norte 8 Norte 0 -- -- 84
2019-05-23 06:00:00 6.3 2 Noroeste 5 Norte 0 -- -- 95
2019-05-23 05:00:00 6.7 0 Calma 2 Norte 0 -- -- 99
2019-05-23 04:00:00 6.5 0 Calma 6 Norte 0 -- -- 100
2019-05-23 03:00:00 7 0 Calma 5 Nordeste 0 -- -- 100
2019-05-23 02:00:00 6.6 0 Calma 3 Norte 0 -- -- 100
2019-05-23 01:00:00 6.3 0 Calma 4 Norte 0 -- -- 99
2019-05-23 00:00:00 7.1 0 Calma 3 Norte 0 -- -- 97
2019-05-22 23:00:00 8.7 3 Norte 5 Oeste 0 -- -- 95
2019-05-22 22:00:00 10.2 0 Calma 18 Nordeste 0 -- -- 96
2019-05-22 21:00:00 13 7 Norte 19 Norte 0 -- -- 85
2019-05-22 20:00:00 14.9 9 Norte 21 Norte 0 -- -- 77
2019-05-22 19:00:00 15.7 11 Norte 23 Norte 0 -- -- 75
2019-05-22 18:00:00 16.1 10 Norte 26 Norte 0 -- -- 74
2019-05-22 17:00:00 15.9 15 Norte 29 Norte 0 -- -- 75
2019-05-22 16:00:00 15.9 13 Norte 27 Norte 0 -- -- 76
2019-05-22 15:00:00 15.6 13 Norte 27 Norte 0 -- -- 77
2019-05-22 14:00:00 14.8 14 Norte 26 Norte 0 -- -- 79
2019-05-22 13:00:00 14.2 14 Norte 26 Norte 0 -- -- 80
2019-05-22 12:00:00 13.6 15 Norte 24 Norte 0 -- -- 81
2019-05-22 11:00:00 14.8 5 Nordeste 12 Nordeste 0 -- -- 77
2019-05-22 10:00:00 12.3 4 Nordeste 24 Norte 0 -- -- 83
2019-05-22 09:00:00 8.8 12 Norte 24 Norte 0 -- -- 98
2019-05-22 08:00:00 8.2 9 Norte 23 Norte 0 -- -- 97
2019-05-22 07:00:00 7.9 9 Norte 19 Nordeste 0 -- -- 99
2019-05-22 06:00:00 8.5 6 Norte 19 Norte 0 -- -- 96
2019-05-22 05:00:00 8.8 8 Norte 23 Noroeste 0 -- -- 95
2019-05-22 04:00:00 8.8 6 Norte 24 Norte 0 -- -- 95
2019-05-22 03:00:00 8.4 7 Noroeste 21 Noroeste 0 -- -- 96
2019-05-22 02:00:00 7.8 10 Norte 25 Norte 0 -- -- 97
2019-05-22 01:00:00 8 10 Norte 23 Noroeste 0 -- -- 98
2019-05-22 00:00:00 8.4 5 Noroeste 18 Norte 0 -- -- 98
2019-05-21 23:00:00 8.8 6 Norte 26 Nordeste 0 -- -- 97
2019-05-21 22:00:00 9.2 6 Nordeste 26 Este 0 -- -- 96
2019-05-21 21:00:00 9.9 6 Noroeste 23 Norte 0 -- -- 92
2019-05-21 20:00:00 11.2 6 Noroeste 22 Este 0 -- -- 76
2019-05-21 19:00:00 12.3 5 Oeste 33 Noroeste 0 -- -- 80
2019-05-21 18:00:00 12 6 Norte 30 Noroeste 0 -- -- 78
2019-05-21 17:00:00 11.8 12 Norte 30 Noroeste 0 -- -- 78
2019-05-21 16:00:00 11.1 9 Norte 27 Noroeste 0 -- -- 84
2019-05-21 15:00:00 10.7 7 Noroeste 28 Noroeste 0 -- -- 87
2019-05-21 14:00:00 11.1 12 Norte 32 Noroeste 0 -- -- 84
2019-05-21 13:00:00 10.6 14 Norte 32 Norte 0 -- -- 84
2019-05-21 12:00:00 9.6 17 Norte 30 Norte 0 -- -- 88
2019-05-21 11:00:00 8.5 15 Norte 25 Norte 0 -- -- 92
2019-05-21 10:00:00 8.1 10 Norte 22 Nordeste 0 -- -- 94
2019-05-21 09:00:00 6.6 13 Nordeste 22 Nordeste 0 -- -- 99
2019-05-21 08:00:00 6.6 10 Nordeste 22 Este 0 -- -- 97
2019-05-21 07:00:00 6.4 11 Nordeste 22 Nordeste 0 -- -- 99
2019-05-21 06:00:00 6.3 10 Nordeste 22 Nordeste 0.2 -- -- 100
2019-05-21 05:00:00 6.4 9 Nordeste 22 Nordeste 0 -- -- 100
2019-05-21 04:00:00 6.8 7 Este 21 Nordeste 0 -- -- 98
2019-05-21 03:00:00 6.9 6 Nordeste 19 Norte 0 -- -- 99
2019-05-21 02:00:00 7.1 6 Nordeste 19 Este 0 -- -- 100
2019-05-21 01:00:00 7.2 8 Nordeste 19 Este 0 -- -- 98
2019-05-21 00:00:00 7.1 5 Nordeste 16 Nordeste 0 -- -- 98
2019-05-20 23:00:00 6.7 8 Nordeste 27 Este 0 -- -- 97
2019-05-20 22:00:00 7.6 6 Este 18 Este 0 -- -- 98
2019-05-20 21:00:00 7.9 5 Norte 19 Norte 0 -- -- 97
2019-05-20 20:00:00 8.5 7 Noroeste 23 Noroeste 0 -- -- 94
2019-05-20 19:00:00 9.7 8 Norte 23 Noroeste 0 -- -- 87
2019-05-20 18:00:00 9.2 11 Norte 22 Nordeste 0 -- -- 88
2019-05-20 17:00:00 11 8 Noroeste 21 Norte 0 -- -- 76
2019-05-20 16:00:00 10.1 9 Norte 21 Norte 0 -- -- 84
2019-05-20 15:00:00 10.3 12 Noroeste 23 Noroeste 0 -- -- 79
2019-05-20 14:00:00 10.4 7 Norte 25 Este 0 -- -- 80
2019-05-20 13:00:00 7.7 3 Oeste 14 Norte 0 -- -- 91
2019-05-20 12:00:00 7.1 3 Oeste 12 Norte 0 -- -- 97
2019-05-20 11:00:00 6.4 4 Sudoeste 12 Noroeste 0 -- -- 98
2019-05-20 10:00:00 5.7 3 Sudeste 9 Oeste 0.2 -- -- 100
2019-05-20 09:00:00 5.8 3 Sudoeste 14 Norte 0 -- -- 98
2019-05-20 08:00:00 5.2 3 Noroeste 10 Nordeste 0 -- -- 99
2019-05-20 07:00:00 5.1 4 Nordeste 10 Sudeste 0 -- -- 99
2019-05-20 06:00:00 4.9 5 Sudeste 12 Noroeste 0 -- -- 98
2019-05-20 05:00:00 5.1 4 Noroeste 14 Noroeste 0 -- -- 97
2019-05-20 04:00:00 4.8 2 Sudoeste 15 Noroeste 0 -- -- 99
2019-05-20 03:00:00 4.7 4 Oeste 11 Oeste 0 -- -- 99
2019-05-20 02:00:00 5 5 Oeste 15 Nordeste 0 -- -- 96
2019-05-20 01:00:00 5.2 7 Este 18 Norte 0 -- -- 96
2019-05-20 00:00:00 5.7 5 Norte 24 Norte 0.6 -- -- 96
2019-05-19 23:00:00 5.8 6 Noroeste 22 Norte 2.8 -- -- 99
2019-05-19 22:00:00 6 5 Noroeste 17 Nordeste 1.6 -- -- 99
2019-05-19 21:00:00 6.1 7 Norte 18 Norte 1.4 -- -- 97
2019-05-19 20:00:00 6.1 5 Norte 21 Norte 1.6 -- -- 99
2019-05-19 19:00:00 6.4 7 Noroeste 24 Norte 1.2 -- -- 97
2019-05-19 18:00:00 6.3 5 Norte 22 Norte 0.8 -- -- 98
2019-05-19 17:00:00 6.5 4 Noroeste 21 Nordeste 2 -- -- 97
2019-05-19 16:00:00 6.4 5 Noroeste 22 Nordeste 3.8 -- -- 97
2019-05-19 15:00:00 6.7 5 Norte 19 Norte 2.6 -- -- 95
2019-05-19 14:00:00 6.2 3 Noroeste 17 Nordeste 4.8 -- -- 96
2019-05-19 13:00:00 5.5 6 Noroeste 24 Este 6.4 -- -- 98
2019-05-19 12:00:00 6.3 2 Este 23 Nordeste 1.6 -- -- 98
2019-05-19 11:00:00 5.7 3 Sudoeste 13 Norte 2 -- -- 99
2019-05-19 10:00:00 5.5 3 Sudoeste 9 Sudeste 2.4 -- -- 98
2019-05-19 09:00:00 5.3 3 Este 17 Nordeste 3 -- -- 97
2019-05-19 08:00:00 5.1 3 Norte 10 Oeste 2 -- -- 100
2019-05-19 07:00:00 4.8 2 Noroeste 10 Norte 1.4 -- -- 100
2019-05-19 06:00:00 4.6 3 Oeste 9 Sur 4 -- -- 100
2019-05-19 05:00:00 4.3 2 Sudoeste 14 Sur 3 -- -- 100
2019-05-19 04:00:00 3.4 0 Calma 10 Sur 3.6 -- -- 100
2019-05-19 03:00:00 3.7 5 Sur 21 Sudoeste 5.2 -- -- 100
2019-05-19 02:00:00 3.4 8 Sur 26 Oeste 4.8 -- -- 100
2019-05-19 01:00:00 3.6 5 Sudoeste 16 Oeste 5.6 -- -- 99
2019-05-19 00:00:00 3.4 4 Sudoeste 19 Noroeste 4.6 -- -- 99
2019-05-18 23:00:00 2.9 4 Sur 7 Sur 3.8 -- -- 100
2019-05-18 22:00:00 2.9 0 Calma 18 Oeste 2.6 -- -- 97
2019-05-18 21:00:00 3.9 3 Sur 16 Sudoeste 1 -- -- 98
2019-05-18 20:00:00 4.2 3 Sudoeste 9 Sudoeste 1.2 -- -- 98
2019-05-18 19:00:00 4.8 4 Sudoeste 15 Oeste 1 -- -- 95
2019-05-18 18:00:00 5.4 2 Sur 21 Oeste 0.8 -- -- 93
2019-05-18 17:00:00 6.4 7 Sudoeste 19 Sudoeste 0.2 -- -- 90
2019-05-18 16:00:00 6.8 3 Nordeste 19 Sudoeste 0.2 -- -- 91
2019-05-18 15:00:00 6 4 Oeste 16 Sur 0 -- -- 90
2019-05-18 14:00:00 6.4 4 Sudoeste 14 Sudoeste 0 -- -- 91
2019-05-18 13:00:00 5.8 6 Sudoeste 19 Oeste 0 -- -- 93
2019-05-18 12:00:00 4.5 4 Sur 17 Sur 0.4 -- -- 98
2019-05-18 11:00:00 4.2 5 Sur 15 Noroeste 0.4 -- -- 99
2019-05-18 10:00:00 4.1 6 Sudoeste 17 Oeste 0 -- -- 94
2019-05-18 09:00:00 4.3 3 Sudoeste 10 Oeste 0 -- -- 92
2019-05-18 08:00:00 3.6 3 Oeste 10 Sudoeste 0 -- -- 96
2019-05-18 07:00:00 3.3 2 Norte 10 Noroeste 0 -- -- 97
2019-05-18 06:00:00 3.4 0 Calma 7 Este 0 -- -- 95
2019-05-18 05:00:00 3.7 0 Calma 12 Oeste 0 -- -- 97
2019-05-18 04:00:00 3.9 3 Oeste 12 Oeste 0 -- -- 98
2019-05-18 03:00:00 4.2 3 Este 15 Oeste 0 -- -- 98
2019-05-18 02:00:00 4.2 0 Calma 17 Nordeste 0 -- -- 98
2019-05-18 01:00:00 4.5 4 Norte 18 Oeste 0.4 -- -- 97
2019-05-18 00:00:00 4.7 4 Sur 24 Norte 1.4 -- -- 98
2019-05-17 23:00:00 4.5 0 Calma 19 Norte 3.8 -- -- 98
2019-05-17 22:00:00 4.8 3 Noroeste 20 Nordeste 1.6 -- -- 97
2019-05-17 21:00:00 5 5 Norte 22 Noroeste 3.8 -- -- 95
2019-05-17 20:00:00 5.9 6 Norte 23 Noroeste 0.6 -- -- 93
2019-05-17 19:00:00 5.8 5 Oeste 23 Nordeste 1.6 -- -- 95
2019-05-17 18:00:00 6.2 7 Noroeste 27 Noroeste 0.8 -- -- 94
2019-05-17 17:00:00 6.3 7 Oeste 36 Nordeste 0.6 -- -- 94
2019-05-17 16:00:00 6.7 5 Noroeste 28 Norte 0.6 -- -- 94
2019-05-17 15:00:00 6.5 10 Norte 30 Norte 1.2 -- -- 93
2019-05-17 14:00:00 6 7 Norte 33 Este 6 -- -- 96
2019-05-17 13:00:00 6.3 3 Norte 27 Norte 5 -- -- 97
2019-05-17 12:00:00 6.2 3 Sudoeste 11 Sur 3 -- -- 100
2019-05-17 11:00:00 6 4 Sur 18 Nordeste 2.2 -- -- 99
2019-05-17 10:00:00 6.2 4 Norte 13 Sudoeste 2.4 -- -- 99
2019-05-17 09:00:00 5.9 3 Norte 13 Noroeste 3.8 -- -- 99
2019-05-17 08:00:00 5.8 4 Norte 23 Noroeste 5.2 -- -- 98
2019-05-17 07:00:00 5.5 5 Nordeste 26 Norte 7.2 -- -- 98
2019-05-17 06:00:00 5.5 5 Nordeste 28 Nordeste 5.2 -- -- 96
2019-05-17 05:00:00 5.8 9 Norte 26 Nordeste 8 -- -- 96
2019-05-17 04:00:00 6.1 4 Sur 18 Norte 8 -- -- 98
2019-05-17 03:00:00 6.5 6 Sudoeste 31 Norte 6.4 -- -- 98
2019-05-17 02:00:00 7.1 13 Nordeste 35 Nordeste 2 -- -- 98
2019-05-17 01:00:00 7.8 5 Oeste 20 Norte 1.2 -- -- 100
2019-05-17 00:00:00 7.9 5 Norte 26 Norte 3 -- -- 100
2019-05-16 23:00:00 8.4 12 Norte 25 Norte 5 -- -- 99
2019-05-16 22:00:00 8.9 9 Norte 26 Norte 0.2 -- -- 97
2019-05-16 21:00:00 9.8 6 Nordeste 34 Norte 0 -- -- 94
2019-05-16 20:00:00 10.2 10 Norte 30 Noroeste 0 -- -- 90
2019-05-16 19:00:00 11.8 18 Norte 34 Norte 0 -- -- 88
2019-05-16 18:00:00 14.3 14 Norte 34 Norte 0 -- -- 75
2019-05-16 17:00:00 15.6 18 Norte 33 Norte 0 -- -- 68
2019-05-16 16:00:00 16.8 17 Norte 32 Norte 0 -- -- 62
2019-05-16 15:00:00 19.5 8 Sudoeste 23 Sur 0 -- -- 60
2019-05-16 14:00:00 17.8 7 Sur 19 Sur 0 -- -- 57
2019-05-16 13:00:00 16.8 8 Sur 23 Sur 0 -- -- 59
2019-05-16 12:00:00 15.8 5 Sur 17 Sur 0 -- -- 68
2019-05-16 11:00:00 13.9 8 Sur 14 Sudoeste 0 -- -- 68
2019-05-16 10:00:00 12.4 5 Sudoeste 12 Sudoeste 0 -- -- 69
2019-05-16 09:00:00 10.4 2 Sur 5 Sudoeste 0 -- -- 74
2019-05-16 08:00:00 7.4 2 Oeste 5 Oeste 0 -- -- 84
2019-05-16 07:00:00 4.7 0 Calma 2 Oeste 0 -- -- 94
2019-05-16 06:00:00 3.6 0 Calma 3 Noroeste 0 -- -- 94
2019-05-16 05:00:00 4.3 0 Calma 7 Nordeste 0 -- -- 91
2019-05-16 04:00:00 5.9 2 Norte 4 Norte 0 -- -- 83
2019-05-16 03:00:00 6.8 2 Noroeste 15 Norte 0 -- -- 75
2019-05-16 02:00:00 10.2 9 Nordeste 21 Norte 0 -- -- 61
2019-05-16 01:00:00 10.6 6 Nordeste 23 Nordeste 0 -- -- 61
2019-05-16 00:00:00 11.1 5 Norte 18 Norte 0 -- -- 60
2019-05-15 23:00:00 11.1 5 Noroeste 18 Noroeste 0 -- -- 66
2019-05-15 22:00:00 11.6 8 Noroeste 30 Noroeste 0 -- -- 69
2019-05-15 21:00:00 12.4 4 Sur 27 Noroeste 0 -- -- 62
2019-05-15 20:00:00 14.3 8 Noroeste 29 Noroeste 0 -- -- 53
2019-05-15 19:00:00 15 12 Noroeste 36 Norte 0 -- -- 45
2019-05-15 18:00:00 15.3 14 Noroeste 32 Noroeste 0 -- -- 49
2019-05-15 17:00:00 15.4 15 Noroeste 33 Noroeste 0 -- -- 52
2019-05-15 16:00:00 15.9 13 Norte 33 Norte 0 -- -- 52
2019-05-15 15:00:00 15.7 14 Noroeste 32 Noroeste 0 -- -- 56
2019-05-15 14:00:00 15.1 17 Noroeste 30 Noroeste 0 -- -- 57
2019-05-15 13:00:00 14.4 14 Noroeste 33 Noroeste 0 -- -- 59
2019-05-15 12:00:00 14.8 15 Noroeste 34 Norte 0 -- -- 39
2019-05-15 11:00:00 15 14 Noroeste 29 Noroeste 0 -- -- 42
2019-05-15 10:00:00 14.8 8 Este 27 Sudeste 0 -- -- 47
2019-05-15 09:00:00 13.6 9 Este 25 Sudeste 0 -- -- 50
2019-05-15 08:00:00 11.2 4 Oeste 32 Norte 0 -- -- 61
2019-05-15 07:00:00 10 19 Norte 36 Norte 0 -- -- 69
2019-05-15 06:00:00 9.1 18 Norte 33 Norte 0 -- -- 76
2019-05-15 05:00:00 10.8 14 Norte 28 Norte 0 -- -- 66
2019-05-15 04:00:00 10.9 10 Nordeste 27 Norte 0 -- -- 65
2019-05-15 03:00:00 11.2 12 Nordeste 25 Nordeste 0 -- -- 65
2019-05-15 02:00:00 9.5 7 Este 24 Nordeste 0 -- -- 73
2019-05-15 01:00:00 11.5 9 Norte 29 Noroeste 0 -- -- 65
2019-05-15 00:00:00 11.5 10 Norte 32 Norte 0 -- -- 68
2019-05-14 23:00:00 11.7 15 Norte 33 Norte 0 -- -- 70
2019-05-14 22:00:00 11.7 9 Norte 24 Nordeste 0 -- -- 71
2019-05-14 21:00:00 12.2 10 Nordeste 32 Este 0 -- -- 73
2019-05-14 20:00:00 14.3 9 Nordeste 33 Nordeste 0 -- -- 61
2019-05-14 19:00:00 14.8 9 Nordeste 34 Norte 0 -- -- 61
2019-05-14 18:00:00 15.2 11 Norte 33 Este 0 -- -- 60
2019-05-14 17:00:00 15.2 16 Norte 39 Norte 0 -- -- 62
2019-05-14 16:00:00 15.1 21 Norte 37 Nordeste 0 -- -- 62
2019-05-14 15:00:00 15 21 Norte 36 Nordeste 0 -- -- 59
2019-05-14 14:00:00 14.7 18 Norte 31 Norte 0 -- -- 60
2019-05-14 13:00:00 14.7 17 Norte 31 Norte 0 -- -- 49
2019-05-14 12:00:00 13.8 18 Norte 32 Norte 0 -- -- 47
2019-05-14 11:00:00 13.2 13 Norte 28 Norte 0 -- -- 47
2019-05-14 10:00:00 13.1 11 Norte 25 Nordeste 0 -- -- 46
2019-05-14 09:00:00 12.2 9 Nordeste 20 Nordeste 0 -- -- 47
2019-05-14 08:00:00 6.4 3 Este 11 Este 0 -- -- 68
2019-05-14 07:00:00 4 0 Calma 8 Este 0 -- -- 80
2019-05-14 06:00:00 2.3 0 Calma 8 Nordeste 0 -- -- 91
2019-05-14 05:00:00 4.7 3 Noroeste 23 Nordeste 0 -- -- 85
2019-05-14 04:00:00 7.2 11 Norte 30 Nordeste 0 -- -- 76
2019-05-14 03:00:00 7.9 14 Norte 43 Norte 0 -- -- 71
2019-05-14 02:00:00 9.4 14 Norte 37 Norte 0 -- -- 61
2019-05-14 01:00:00 9.4 15 Norte 31 Noroeste 0 -- -- 60
2019-05-14 00:00:00 9.3 8 Noroeste 24 Noroeste 0 -- -- 62
2019-05-13 23:00:00 8.8 6 Sudoeste 23 Oeste 0 -- -- 65
2019-05-13 22:00:00 8.9 4 Oeste 22 Oeste 0 -- -- 67
2019-05-13 21:00:00 10.2 8 Sur 26 Este 0 -- -- 58
2019-05-13 20:00:00 11.9 8 Noroeste 26 Este 0 -- -- 53
2019-05-13 19:00:00 12.8 8 Sur 44 Noroeste 0 -- -- 52
2019-05-13 18:00:00 12.9 11 Sur 38 Este 0 -- -- 49
2019-05-13 17:00:00 12.7 12 Noroeste 36 Norte 0 -- -- 53
2019-05-13 16:00:00 12.8 11 Noroeste 44 Noroeste 0 -- -- 53
2019-05-13 15:00:00 12.4 12 Noroeste 41 Noroeste 0 -- -- 53
2019-05-13 14:00:00 11.2 15 Noroeste 43 Norte 0 -- -- 53
2019-05-13 13:00:00 10.2 15 Noroeste 44 Noroeste 0 -- -- 62
2019-05-13 12:00:00 9.7 8 Oeste 35 Norte 0 -- -- 72
2019-05-13 11:00:00 8.2 9 Norte 40 Noroeste 0 -- -- 75
2019-05-13 10:00:00 7.5 8 Norte 38 Nordeste 0 -- -- 76
2019-05-13 09:00:00 5.8 9 Norte 36 Nordeste 0 -- -- 79
2019-05-13 08:00:00 4.2 8 Norte 22 Norte 0 -- -- 87
2019-05-13 07:00:00 3.3 9 Noroeste 33 Noroeste 0 -- -- 90
2019-05-13 06:00:00 3.8 9 Noroeste 33 Noroeste 0 -- -- 88
2019-05-13 05:00:00 4.3 6 Noroeste 30 Este 0 -- -- 86
2019-05-13 04:00:00 5.2 8 Este 27 Sudoeste 0 -- -- 82
2019-05-13 03:00:00 5.6 6 Este 29 Nordeste 0 -- -- 85
2019-05-13 02:00:00 6.6 7 Este 40 Este 0 -- -- 80
2019-05-13 01:00:00 7.4 10 Este 44 Este 0 -- -- 76
2019-05-13 00:00:00 7.6 9 Este 40 Nordeste 0 -- -- 80
2019-05-12 23:00:00 8.1 13 Este 32 Este 0 -- -- 81
2019-05-12 22:00:00 8.6 10 Este 28 Nordeste 0 -- -- 80
2019-05-12 21:00:00 9.2 6 Sur 32 Norte 0 -- -- 80
2019-05-12 20:00:00 10.7 10 Este 32 Este 0 -- -- 66
2019-05-12 19:00:00 11.8 8 Sudeste 32 Noroeste 0 -- -- 59
2019-05-12 18:00:00 11.8 11 Noroeste 36 Noroeste 0 -- -- 67
2019-05-12 17:00:00 12 10 Noroeste 36 Norte 0 -- -- 64
2019-05-12 16:00:00 12 11 Noroeste 48 Noroeste 0 -- -- 65
2019-05-12 15:00:00 11.6 9 Noroeste 34 Noroeste 0 -- -- 69
2019-05-12 14:00:00 11.2 9 Noroeste 32 Noroeste 0 -- -- 75
2019-05-12 13:00:00 9.6 9 Noroeste 28 Nordeste 0 -- -- 84
2019-05-12 12:00:00 8.2 7 Sur 36 Este 0 -- -- 87
2019-05-12 11:00:00 8.1 7 Sudoeste 32 Nordeste 0 -- -- 92
2019-05-12 10:00:00 6.3 10 Este 26 Nordeste 0 -- -- 94
2019-05-12 09:00:00 5.6 10 Este 35 Este 0 -- -- 96
2019-05-12 08:00:00 4.9 8 Este 28 Este 0 -- -- 100
2019-05-12 07:00:00 4.8 7 Este 24 Nordeste 0 -- -- 98
2019-05-12 06:00:00 4.7 8 Este 24 Noroeste 0 -- -- 97
2019-05-12 05:00:00 4.8 5 Sudeste 25 Este 0 -- -- 95
2019-05-12 04:00:00 5 7 Sudeste 29 Este 0 -- -- 98
2019-05-12 03:00:00 5.3 8 Este 23 Este 0 -- -- 97
2019-05-12 02:00:00 5.5 5 Sur 18 Sur 0 -- -- 96
2019-05-12 01:00:00 5.7 5 Sudoeste 23 Oeste 0 -- -- 97
2019-05-12 00:00:00 6 4 Sur 22 Este 0 -- -- 93
2019-05-11 23:00:00 6.5 5 Sudoeste 16 Este 0 -- -- 93
2019-05-11 22:00:00 6.7 7 Noroeste 28 Noroeste 0 -- -- 89
2019-05-11 21:00:00 7.2 12 Norte 23 Noroeste 0 -- -- 83
2019-05-11 20:00:00 7.8 8 Noroeste 24 Oeste 0 -- -- 81
2019-05-11 19:00:00 8.9 7 Noroeste 30 Noroeste 0 -- -- 77
2019-05-11 18:00:00 9.8 8 Nordeste 22 Noroeste 0 -- -- 74
2019-05-11 17:00:00 9.8 6 Oeste 26 Oeste 0 -- -- 73
2019-05-11 16:00:00 9.7 9 Norte 22 Nordeste 0 -- -- 79
2019-05-11 15:00:00 9.8 5 Noroeste 21 Norte 0 -- -- 82
2019-05-11 14:00:00 9 5 Sudoeste 21 Norte 0 -- -- 83
2019-05-11 13:00:00 8.2 4 Sur 19 Oeste 0.2 -- -- 91
2019-05-11 12:00:00 8 8 Noroeste 26 Este 0 -- -- 90
2019-05-11 11:00:00 7.8 6 Noroeste 34 Nordeste 0.4 -- -- 95
2019-05-11 10:00:00 7.3 7 Norte 24 Norte 0.8 -- -- 96
2019-05-11 09:00:00 7.5 4 Norte 12 Nordeste 1 -- -- 98
2019-05-11 08:00:00 7.4 8 Norte 18 Norte 0.4 -- -- 98
2019-05-11 07:00:00 7.6 4 Norte 14 Nordeste 0.2 -- -- 100
2019-05-11 06:00:00 7.8 4 Norte 26 Nordeste 0 -- -- 98
2019-05-11 05:00:00 7.9 15 Nordeste 28 Norte 0 -- -- 100
2019-05-11 04:00:00 8.4 10 Norte 24 Norte 0.2 -- -- 100
2019-05-11 03:00:00 9.4 6 Norte 24 Norte 0.4 -- -- 100
2019-05-11 02:00:00 9.6 6 Norte 17 Norte 0.2 -- -- 100
2019-05-11 01:00:00 9.7 5 Sur 17 Noroeste 0.6 -- -- 100
2019-05-11 00:00:00 9.9 5 Norte 19 Norte 0.4 -- -- 100
2019-05-10 23:00:00 10.2 5 Norte 31 Norte 0 -- -- 100
2019-05-10 22:00:00 10.2 16 Norte 37 Norte 0 -- -- 100
2019-05-10 21:00:00 10.9 3 Norte 19 Norte 0 -- -- 99
2019-05-10 20:00:00 12.8 10 Nordeste 23 Norte 0 -- -- 97
2019-05-10 19:00:00 16.2 5 Norte 27 Noroeste 0 -- -- 80
2019-05-10 18:00:00 14.3 13 Norte 29 Nordeste 0 -- -- 93
2019-05-10 17:00:00 17.5 9 Sur 18 Sur 0 -- -- 78
2019-05-10 16:00:00 17.2 11 Sur 19 Sudoeste 0 -- -- 79
2019-05-10 15:00:00 15.7 8 Sur 23 Sudoeste 0 -- -- 83
2019-05-10 14:00:00 15.5 13 Sudoeste 27 Sur 0 -- -- 86
2019-05-10 13:00:00 14.2 5 Sudoeste 13 Sudoeste 0 -- -- 92
2019-05-10 12:00:00 13.9 4 Sudoeste 17 Sudoeste 0 -- -- 94
2019-05-10 11:00:00 13.2 10 Sudoeste 19 Sur 0 -- -- 97
2019-05-10 10:00:00 12.3 3 Sur 12 Sur 0 -- -- 100
2019-05-10 09:00:00 10.9 0 Calma 5 Sudeste 0 -- -- 100
2019-05-10 08:00:00 10.3 2 Sudoeste 5 Sudoeste 0.2 -- -- 100
2019-05-10 07:00:00 10 3 Norte 8 Nordeste 1.2 -- -- 100
2019-05-10 06:00:00 9.8 3 Nordeste 9 Este 0.2 -- -- 100
2019-05-10 05:00:00 9.6 3 Este 9 Nordeste 0.4 -- -- 100
2019-05-10 04:00:00 9.4 4 Nordeste 8 Nordeste 1.2 -- -- 100
2019-05-10 03:00:00 9.2 4 Nordeste 9 Nordeste 0.8 -- -- 100
2019-05-10 02:00:00 8.9 2 Norte 9 Este 0.6 -- -- 100
2019-05-10 01:00:00 8.8 5 Nordeste 10 Norte 1.2 -- -- 99
2019-05-10 00:00:00 8.8 4 Este 13 Este 0.6 -- -- 98
2019-05-09 23:00:00 8.3 2 Sudeste 11 Este 2 -- -- 99
2019-05-09 22:00:00 7.9 3 Este 12 Sur 2.2 -- -- 97
2019-05-09 21:00:00 8.2 4 Sur 9 Sur 1.4 -- -- 94
2019-05-09 20:00:00 8.6 3 Sur 10 Sudeste 0.8 -- -- 92
2019-05-09 19:00:00 9.5 3 Sur 14 Sudoeste 0.4 -- -- 87
2019-05-09 18:00:00 11.5 10 Sudoeste 24 Sudoeste 0 -- -- 61
2019-05-09 17:00:00 12.9 11 Sudoeste 24 Sudoeste 0 -- -- 46
2019-05-09 16:00:00 13.1 13 Sudoeste 29 Sudoeste 0 -- -- 42
2019-05-09 15:00:00 13.7 12 Sudoeste 30 Sudoeste 0 -- -- 52
2019-05-09 14:00:00 13.2 12 Sudoeste 22 Sudoeste 0 -- -- 54
2019-05-09 13:00:00 12.3 8 Sudoeste 23 Sudoeste 0 -- -- 60
2019-05-09 12:00:00 11.6 8 Sur 20 Sur 0 -- -- 58
2019-05-09 11:00:00 10.3 7 Sudoeste 19 Sur 0 -- -- 63
2019-05-09 10:00:00 9.1 5 Sur 12 Sur 0 -- -- 74
2019-05-09 09:00:00 8.4 0 Calma 3 Sudeste 0 -- -- 79
2019-05-09 08:00:00 2.7 0 Calma 3 Norte 0 -- -- 100
2019-05-09 07:00:00 2.2 0 Calma 3 Nordeste 0 -- -- 100
2019-05-09 06:00:00 2.5 0 Calma 3 Sudoeste 0 -- -- 100
2019-05-09 05:00:00 3.4 0 Calma 8 Norte 0 -- -- 97
2019-05-09 04:00:00 3.6 0 Calma 4 Norte 0 -- -- 95
2019-05-09 03:00:00 4.6 3 Noroeste 4 Norte 0 -- -- 87
2019-05-09 02:00:00 5.7 2 Norte 9 Sudoeste 0 -- -- 81
2019-05-09 01:00:00 8.8 3 Sudoeste 14 Sudoeste 0 -- -- 61
2019-05-09 00:00:00 9.8 6 Sudoeste 18 Sudoeste 0 -- -- 58
2019-05-08 23:00:00 9.2 3 Sudoeste 9 Sudoeste 0 -- -- 65
2019-05-08 22:00:00 10.7 4 Sudoeste 15 Sudoeste 0 -- -- 58
2019-05-08 21:00:00 12.5 5 Sudoeste 19 Oeste 0 -- -- 52
2019-05-08 20:00:00 14 7 Sudoeste 34 Sur 0 -- -- 45
2019-05-08 19:00:00 15 11 Sudoeste 33 Sudoeste 0 -- -- 46
2019-05-08 18:00:00 15.8 10 Sudoeste 31 Sudoeste 0 -- -- 51
2019-05-08 17:00:00 14.4 10 Sudoeste 27 Oeste 0 -- -- 59
2019-05-08 16:00:00 14.9 6 Sudoeste 20 Sudoeste 0 -- -- 71
2019-05-08 15:00:00 14.1 10 Sudoeste 41 Sudeste 0 -- -- 89
2019-05-08 14:00:00 14.4 13 Sur 32 Sur 1 -- -- 88
2019-05-08 13:00:00 14 11 Sudoeste 33 Sudoeste 0 -- -- 87
2019-05-08 12:00:00 13.2 15 Sur 34 Sur 0.2 -- -- 87
2019-05-08 11:00:00 12.4 20 Sur 41 Sur 0.2 -- -- 91
2019-05-08 10:00:00 12.2 18 Sur 37 Sur 0 -- -- 88
2019-05-08 09:00:00 11.6 14 Sur 35 Sudoeste 0 -- -- 88
2019-05-08 08:00:00 11.1 17 Sur 37 Sur 0 -- -- 91
2019-05-08 07:00:00 10.8 12 Sur 27 Sur 0.2 -- -- 96
2019-05-08 06:00:00 9.9 5 Sudoeste 18 Sudoeste 1 -- -- 99
2019-05-08 05:00:00 10.6 8 Sudoeste 28 Sur 1 -- -- 95
2019-05-08 04:00:00 12.2 9 Sudoeste 31 Sudoeste 0.2 -- -- 86
2019-05-08 03:00:00 14 20 Sur 40 Sudoeste 0 -- -- 77
2019-05-08 02:00:00 13.6 15 Sur 32 Sur 0.4 -- -- 78
2019-05-08 01:00:00 14.3 16 Sur 32 Sur 0 -- -- 72
2019-05-08 00:00:00 14.2 4 Sudoeste 14 Sudoeste 0 -- -- 68
2019-05-07 23:00:00 13 3 Oeste 6 Sudoeste 0 -- -- 76
2019-05-07 22:00:00 12.7 2 Norte 11 Oeste 0 -- -- 84
2019-05-07 21:00:00 14.8 2 Oeste 9 Sudoeste 0 -- -- 66
2019-05-07 20:00:00 16.1 3 Sudoeste 20 Sudoeste 0 -- -- 59
2019-05-07 19:00:00 16.5 11 Sudoeste 24 Sur 0 -- -- 56
2019-05-07 18:00:00 17.2 10 Sudoeste 23 Sur 0 -- -- 55
2019-05-07 17:00:00 17.4 14 Sur 32 Sur 0 -- -- 52
2019-05-07 16:00:00 17.7 19 Sur 30 Sur 0 -- -- 49
2019-05-07 15:00:00 17.6 14 Sur 28 Sur 0 -- -- 52
2019-05-07 14:00:00 17.1 11 Sudoeste 28 Sur 0 -- -- 45
2019-05-07 13:00:00 16.6 12 Sudoeste 27 Sur 0 -- -- 41
2019-05-07 12:00:00 15.5 12 Sudoeste 22 Sudoeste 0 -- -- 43
2019-05-07 11:00:00 15.4 9 Sudoeste 20 Sur 0 -- -- 44
2019-05-07 10:00:00 13.2 4 Sur 6 Sudoeste 0 -- -- 53
2019-05-07 09:00:00 12.2 2 Sudeste 8 Este 0 -- -- 49
2019-05-07 08:00:00 9.3 0 Calma 5 Norte 0 -- -- 61
2019-05-07 07:00:00 6.8 3 Norte 6 Este 0 -- -- 65
2019-05-07 06:00:00 5.9 2 Norte 4 Nordeste 0 -- -- 67
2019-05-07 05:00:00 4.2 0 Calma 4 Sur 0 -- -- 83
2019-05-07 04:00:00 3.7 0 Calma 4 Norte 0 -- -- 76
2019-05-07 03:00:00 4 0 Calma 3 Oeste 0 -- -- 77
2019-05-07 02:00:00 4.8 0 Calma 6 Norte 0 -- -- 75
2019-05-07 01:00:00 5.8 2 Norte 5 Norte 0 -- -- 67
2019-05-07 00:00:00 5.9 0 Calma 5 Norte 0 -- -- 66
2019-05-06 23:00:00 6.8 2 Noroeste 7 Norte 0 -- -- 67
2019-05-06 22:00:00 7.3 3 Norte 6 Norte 0 -- -- 70
2019-05-06 21:00:00 9.7 4 Norte 13 Nordeste 0 -- -- 68
2019-05-06 20:00:00 12.7 2 Norte 10 Norte 0 -- -- 55
2019-05-06 19:00:00 13.1 7 Norte 18 Norte 0 -- -- 48
2019-05-06 18:00:00 13.3 10 Norte 23 Norte 0 -- -- 50
2019-05-06 17:00:00 13.5 14 Norte 27 Norte 0 -- -- 46
2019-05-06 16:00:00 13.5 13 Norte 26 Norte 0 -- -- 53
2019-05-06 15:00:00 13.4 12 Norte 24 Norte 0 -- -- 49
2019-05-06 14:00:00 12.9 12 Norte 21 Nordeste 0 -- -- 48
2019-05-06 13:00:00 12.1 10 Norte 18 Nordeste 0 -- -- 59
2019-05-06 12:00:00 11.2 8 Norte 19 Norte 0 -- -- 51
2019-05-06 11:00:00 9.2 9 Nordeste 24 Norte 0 -- -- 49
2019-05-06 10:00:00 7.3 10 Nordeste 23 Nordeste 0 -- -- 51
2019-05-06 09:00:00 4.2 14 Norte 32 Norte 0 -- -- 65
2019-05-06 08:00:00 2.3 17 Norte 33 Norte 0 -- -- 73
2019-05-06 07:00:00 1.7 15 Norte 30 Nordeste 0 -- -- 75
2019-05-06 06:00:00 1.2 9 Norte 27 Este 0 -- -- 79
2019-05-06 05:00:00 2 10 Norte 21 Norte 0 -- -- 75
2019-05-06 04:00:00 1.8 9 Norte 23 Noroeste 0 -- -- 79
2019-05-06 03:00:00 1.9 10 Norte 28 Norte 0 -- -- 81
2019-05-06 02:00:00 2 9 Noroeste 30 Noroeste 0 -- -- 87
2019-05-06 01:00:00 2.4 6 Noroeste 23 Norte 0 -- -- 86
2019-05-06 00:00:00 2.5 6 Oeste 22 Noroeste 0 -- -- 90
2019-05-05 23:00:00 2.6 5 Sudoeste 21 Este 0 -- -- 91
2019-05-05 22:00:00 3.1 4 Sudeste 27 Este 0 -- -- 92
2019-05-05 21:00:00 4 9 Este 27 Sudeste 0 -- -- 69
2019-05-05 20:00:00 5 8 Oeste 34 Noroeste 0 -- -- 65
2019-05-05 19:00:00 6.2 9 Noroeste 39 Norte 0 -- -- 61
2019-05-05 18:00:00 6.3 12 Noroeste 42 Noroeste 0 -- -- 61
2019-05-05 17:00:00 6.3 13 Noroeste 41 Noroeste 0 -- -- 60
2019-05-05 16:00:00 6.1 15 Noroeste 40 Noroeste 0 -- -- 60
2019-05-05 15:00:00 5.3 17 Noroeste 41 Norte 0 -- -- 64
2019-05-05 14:00:00 5 13 Noroeste 35 Noroeste 0 -- -- 69
2019-05-05 13:00:00 4 10 Norte 31 Noroeste 0 -- -- 76
2019-05-05 12:00:00 3.3 9 Este 30 Este 0 -- -- 90
2019-05-05 11:00:00 1.5 8 Norte 30 Este 0 -- -- 91
2019-05-05 10:00:00 1.7 6 Nordeste 30 Este 0 -- -- 86
2019-05-05 09:00:00 -0.4 8 Sudeste 25 Este 0 -- -- 98
2019-05-05 08:00:00 -1 6 Este 24 Este 0 -- -- 99
2019-05-05 07:00:00 -1.1 9 Este 26 Nordeste 0 -- -- 100
2019-05-05 06:00:00 -1 6 Sur 30 Este 0 -- -- 100
2019-05-05 05:00:00 -0.6 8 Este 26 Este 0 -- -- 99
2019-05-05 04:00:00 -0.4 8 Norte 32 Nordeste 0 -- -- 100
2019-05-05 03:00:00 0.4 8 Sudeste 33 Oeste 0 -- -- 100
2019-05-05 02:00:00 1.1 12 Este 31 Este 0 -- -- 100
2019-05-05 01:00:00 2.7 10 Sudeste 38 Este 1 -- -- 99
2019-05-05 00:00:00 3.7 10 Sur 26 Sudeste 1.2 -- -- 99
2019-05-04 23:00:00 4 5 Sudoeste 21 Norte 0.8 -- -- 99
2019-05-04 22:00:00 4.2 5 Sudoeste 26 Oeste 2.8 -- -- 100
2019-05-04 21:00:00 5.3 5 Oeste 23 Norte 2 -- -- 99
2019-05-04 20:00:00 5.4 7 Noroeste 24 Norte 2.2 -- -- 96
2019-05-04 19:00:00 6.7 5 Nordeste 22 Sudoeste 0 -- -- 84
2019-05-04 18:00:00 7.1 5 Noroeste 26 Noroeste 0 -- -- 81
2019-05-04 17:00:00 9.3 5 Sur 19 Sudeste 0 -- -- 71
2019-05-04 16:00:00 9.1 6 Noroeste 23 Norte 0 -- -- 70
2019-05-04 15:00:00 9.5 6 Sudeste 24 Nordeste 0 -- -- 68
2019-05-04 14:00:00 8.4 8 Noroeste 22 Norte 0 -- -- 76
2019-05-04 13:00:00 8 7 Sur 22 Noroeste 0 -- -- 80
2019-05-04 12:00:00 6.4 8 Norte 18 Norte 0 -- -- 84
2019-05-04 11:00:00 5.5 5 Noroeste 15 Este 0 -- -- 91
2019-05-04 10:00:00 5.4 5 Oeste 19 Este 0 -- -- 90
2019-05-04 09:00:00 4.5 5 Sur 16 Este 0 -- -- 97
2019-05-04 08:00:00 4 6 Sudeste 17 Este 0 -- -- 98
2019-05-04 07:00:00 3.7 6 Sur 21 Este 0 -- -- 99
2019-05-04 06:00:00 3.8 4 Sudoeste 18 Sudeste 0 -- -- 99
2019-05-04 05:00:00 4 5 Sur 22 Este 0 -- -- 97
2019-05-04 04:00:00 4.1 5 Sudeste 14 Este 0 -- -- 100
2019-05-04 03:00:00 4.1 6 Sudeste 18 Este 0 -- -- 99
2019-05-04 02:00:00 4 4 Sur 15 Noroeste 0 -- -- 99
2019-05-04 01:00:00 4.1 5 Sudeste 21 Este 0 -- -- 98
2019-05-04 00:00:00 4.3 6 Sudeste 17 Sudeste 0 -- -- 100
2019-05-03 23:00:00 4.5 8 Sur 15 Noroeste 0.8 -- -- 100
2019-05-03 22:00:00 4.5 4 Oeste 17 Sur 1.8 -- -- 100
2019-05-03 21:00:00 4.4 3 Noroeste 24 Sudeste 1.4 -- -- 100
2019-05-03 20:00:00 4.7 5 Sur 22 Noroeste 0.6 -- -- 99
2019-05-03 19:00:00 5.3 4 Sur 20 Noroeste 0.2 -- -- 96
2019-05-03 18:00:00 5 7 Noroeste 19 Sur 2 -- -- 98
2019-05-03 17:00:00 5.4 5 Sur 21 Norte 0.6 -- -- 98
2019-05-03 16:00:00 5.9 8 Norte 20 Norte 0.4 -- -- 96
2019-05-03 15:00:00 5.3 6 Norte 24 Nordeste 1.2 -- -- 97
2019-05-03 14:00:00 4.9 5 Noroeste 19 Noroeste 0.6 -- -- 98
2019-05-03 13:00:00 4.4 5 Noroeste 19 Norte 1.4 -- -- 96
2019-05-03 12:00:00 3.9 7 Norte 21 Noroeste 1.2 -- -- 98
2019-05-03 11:00:00 3.7 6 Noroeste 17 Noroeste 0.6 -- -- 97
2019-05-03 10:00:00 2.8 5 Noroeste 13 Noroeste 0.6 -- -- 98
2019-05-03 09:00:00 2.2 5 Norte 12 Norte 1.6 -- -- 97
2019-05-03 08:00:00 2.2 7 Norte 18 Norte 3.6 -- -- 96
2019-05-03 07:00:00 3.9 8 Nordeste 20 Norte 0.4 -- -- 94
2019-05-03 06:00:00 4.5 6 Sur 15 Sudeste 0.4 -- -- 99
2019-05-03 05:00:00 4.6 4 Sur 15 Sudoeste 0 -- -- 99
2019-05-03 04:00:00 4.7 7 Sur 13 Sudeste 0 -- -- 97
2019-05-03 03:00:00 4.7 4 Sudoeste 11 Oeste 0 -- -- 95
2019-05-03 02:00:00 4.6 3 Sudoeste 17 Sur 0 -- -- 96
2019-05-03 01:00:00 5.1 2 Sur 7 Sur 0 -- -- 95
2019-05-03 00:00:00 5.1 3 Sur 12 Sudeste 0 -- -- 94
2019-05-02 23:00:00 5.3 6 Sur 13 Sudeste 0 -- -- 93
2019-05-02 22:00:00 5.4 6 Sur 18 Sur 0 -- -- 91
2019-05-02 21:00:00 6.1 3 Sur 13 Este 0 -- -- 86
2019-05-02 20:00:00 6.8 5 Oeste 16 Norte 0 -- -- 85
2019-05-02 19:00:00 7.1 4 Norte 23 Noroeste 0 -- -- 84
2019-05-02 18:00:00 7.4 4 Sur 18 Norte 0 -- -- 91
2019-05-02 17:00:00 7.6 6 Sudeste 23 Noroeste 0 -- -- 90
2019-05-02 16:00:00 7.6 5 Oeste 19 Norte 0 -- -- 92
2019-05-02 15:00:00 7.4 5 Sur 24 Este 0 -- -- 92
2019-05-02 14:00:00 6.9 4 Sudeste 13 Este 0 -- -- 97
2019-05-02 13:00:00 6.7 4 Sur 17 Noroeste 0 -- -- 98
2019-05-02 12:00:00 7.6 4 Noroeste 17 Este 0 -- -- 93
2019-05-02 11:00:00 6.7 7 Este 20 Este 0 -- -- 97
2019-05-02 10:00:00 7.2 6 Sur 20 Este 0 -- -- 95
2019-05-02 09:00:00 6.7 5 Sudeste 15 Este 0 -- -- 97
2019-05-02 08:00:00 6.5 4 Sur 10 Sur 0 -- -- 97
2019-05-02 07:00:00 6.4 3 Oeste 15 Oeste 0 -- -- 97
2019-05-02 06:00:00 6.5 5 Sur 15 Sudeste 0 -- -- 98
2019-05-02 05:00:00 6.5 4 Sudeste 16 Este 0 -- -- 97
2019-05-02 04:00:00 6.4 5 Sur 15 Oeste 0 -- -- 97
2019-05-02 03:00:00 6.5 4 Noroeste 15 Noroeste 0 -- -- 98
2019-05-02 02:00:00 6.6 5 Noroeste 17 Noroeste 0 -- -- 97
2019-05-02 01:00:00 6.8 5 Sudeste 13 Este 0 -- -- 96
2019-05-02 00:00:00 7 5 Sudoeste 22 Sudoeste 0 -- -- 95
2019-05-01 23:00:00 7.2 5 Oeste 17 Sudeste 0 -- -- 96
2019-05-01 22:00:00 7.6 3 Sudoeste 17 Norte 0 -- -- 95
2019-05-01 21:00:00 8.1 6 Norte 18 Norte 0 -- -- 94
2019-05-01 20:00:00 8.7 5 Oeste 32 Noroeste 0 -- -- 93
2019-05-01 19:00:00 10.2 9 Norte 39 Norte 0 -- -- 87
2019-05-01 18:00:00 9.9 9 Norte 31 Noroeste 0.2 -- -- 88
2019-05-01 17:00:00 11.8 14 Noroeste 36 Norte 0 -- -- 78
2019-05-01 16:00:00 14.1 12 Norte 32 Norte 0 -- -- 66
2019-05-01 15:00:00 14.6 12 Norte 30 Norte 0 -- -- 59
2019-05-01 14:00:00 13.9 15 Norte 28 Norte 0 -- -- 58
2019-05-01 13:00:00 13.4 15 Norte 28 Norte 0 -- -- 55
2019-05-01 12:00:00 12.7 15 Norte 27 Norte 0 -- -- 57
2019-05-01 11:00:00 12.2 14 Norte 23 Norte 0 -- -- 55
2019-05-01 10:00:00 11.4 12 Norte 23 Norte 0 -- -- 58
2019-05-01 09:00:00 9 3 Sudeste 6 Sur 0 -- -- 74
2019-05-01 08:00:00 4 0 Calma 7 Sudoeste 0 -- -- 88
2019-05-01 07:00:00 4.1 0 Calma 11 Nordeste 0 -- -- 85
2019-05-01 06:00:00 4.5 4 Noroeste 23 Nordeste 0 -- -- 84
2019-05-01 05:00:00 7.7 12 Norte 26 Nordeste 0 -- -- 70
2019-05-01 04:00:00 6.3 4 Sur 22 Norte 0 -- -- 79
2019-05-01 03:00:00 6.6 8 Nordeste 20 Norte 0 -- -- 77
2019-05-01 02:00:00 7.2 8 Nordeste 24 Nordeste 0 -- -- 74
2019-05-01 01:00:00 7.7 11 Norte 22 Nordeste 0 -- -- 71
2019-05-01 00:00:00 8.2 7 Nordeste 21 Norte 0 -- -- 68
2019-04-30 23:00:00 8.3 6 Norte 20 Nordeste 0 -- -- 77
2019-04-30 22:00:00 8.8 6 Nordeste 24 Nordeste 0 -- -- 79
2019-04-30 21:00:00 9.2 6 Nordeste 27 Noroeste 0 -- -- 81
2019-04-30 20:00:00 10.6 7 Norte 30 Noroeste 0 -- -- 75
2019-04-30 19:00:00 12.4 11 Noroeste 30 Norte 0 -- -- 50
2019-04-30 18:00:00 12.9 14 Noroeste 32 Noroeste 0 -- -- 54
2019-04-30 17:00:00 13.2 14 Norte 35 Norte 0 -- -- 56
2019-04-30 16:00:00 12.8 17 Norte 37 Noroeste 0 -- -- 58
2019-04-30 15:00:00 12.7 14 Norte 30 Noroeste 0 -- -- 54
2019-04-30 14:00:00 12 14 Norte 31 Noroeste 0 -- -- 62
2019-04-30 13:00:00 11.4 14 Norte 33 Norte 0 -- -- 70
2019-04-30 12:00:00 10.6 12 Noroeste 27 Norte 0 -- -- 71
2019-04-30 11:00:00 10.1 13 Norte 27 Noroeste 0 -- -- 71
2019-04-30 10:00:00 9.9 9 Noroeste 28 Este 0 -- -- 73
2019-04-30 09:00:00 8.7 8 Nordeste 26 Este 0 -- -- 78
2019-04-30 08:00:00 6.9 6 Norte 25 Norte 0 -- -- 87
2019-04-30 07:00:00 6.3 7 Nordeste 21 Nordeste 0 -- -- 90
2019-04-30 06:00:00 6 4 Norte 27 Norte 0 -- -- 94
2019-04-30 05:00:00 6 5 Norte 19 Noroeste 0 -- -- 96
2019-04-30 04:00:00 6.3 8 Noroeste 19 Norte 0 -- -- 98
2019-04-30 03:00:00 6.8 9 Norte 19 Nordeste 0 -- -- 96
2019-04-30 02:00:00 7.1 9 Norte 24 Norte 0 -- -- 96
2019-04-30 01:00:00 7.4 9 Nordeste 22 Noroeste 0 -- -- 96
2019-04-30 00:00:00 7.7 6 Nordeste 30 Norte 0 -- -- 95
2019-04-29 23:00:00 8 11 Norte 25 Norte 0 -- -- 96
2019-04-29 22:00:00 8.6 8 Norte 23 Norte 0 -- -- 93
2019-04-29 21:00:00 9.2 6 Norte 28 Noroeste 0 -- -- 90
2019-04-29 20:00:00 10.1 14 Norte 30 Norte 0 -- -- 87
2019-04-29 19:00:00 11.5 14 Norte 28 Noroeste 0 -- -- 81
2019-04-29 18:00:00 12.1 14 Norte 26 Norte 0 -- -- 78
2019-04-29 17:00:00 12.3 13 Norte 30 Norte 0 -- -- 77
2019-04-29 16:00:00 12.4 14 Norte 29 Norte 0 -- -- 77
2019-04-29 15:00:00 11.8 15 Norte 33 Norte 0 -- -- 80
2019-04-29 14:00:00 11.2 14 Norte 29 Norte 0 -- -- 79
2019-04-29 13:00:00 10.3 18 Norte 33 Norte 0 -- -- 82
2019-04-29 12:00:00 9.2 18 Norte 34 Norte 0 -- -- 85
2019-04-29 11:00:00 8.2 20 Norte 37 Norte 0 -- -- 85
2019-04-29 10:00:00 7.6 15 Norte 28 Norte 0 -- -- 88
2019-04-29 09:00:00 6.7 15 Norte 27 Norte 0 -- -- 89
2019-04-29 08:00:00 4.7 9 Norte 23 Norte 0 -- -- 97
2019-04-29 07:00:00 4.4 10 Norte 25 Norte 0 -- -- 100
2019-04-29 06:00:00 4 14 Norte 29 Norte 0 -- -- 100
2019-04-29 05:00:00 4.9 18 Norte 30 Norte 0 -- -- 96
2019-04-29 04:00:00 5.5 4 Norte 25 Norte 0 -- -- 92
2019-04-29 03:00:00 4.5 14 Norte 32 Norte 0 -- -- 100
2019-04-29 02:00:00 4.7 15 Norte 28 Norte 0 -- -- 100
2019-04-29 01:00:00 4.9 13 Norte 27 Noroeste 0 -- -- 100
2019-04-29 00:00:00 5.3 7 Norte 21 Norte 0 -- -- 98
2019-04-28 23:00:00 5.6 6 Noroeste 23 Norte 0 -- -- 97
2019-04-28 22:00:00 6.1 7 Norte 18 Este 0 -- -- 94
2019-04-28 21:00:00 6.9 6 Noroeste 23 Noroeste 0 -- -- 90
2019-04-28 20:00:00 7.5 11 Noroeste 31 Norte 0 -- -- 86
2019-04-28 19:00:00 8.5 17 Norte 37 Noroeste 0 -- -- 82
2019-04-28 18:00:00 9.3 21 Norte 40 Norte 0 -- -- 77
2019-04-28 17:00:00 10 15 Norte 35 Norte 0 -- -- 74
2019-04-28 16:00:00 10.2 12 Norte 30 Norte 0 -- -- 72
2019-04-28 15:00:00 9.8 10 Norte 24 Noroeste 0 -- -- 71
2019-04-28 14:00:00 8.7 13 Norte 30 Noroeste 0 -- -- 75
2019-04-28 13:00:00 7.9 14 Noroeste 34 Noroeste 0 -- -- 76
2019-04-28 12:00:00 7.4 9 Noroeste 27 Nordeste 0 -- -- 77
2019-04-28 11:00:00 6.4 10 Este 23 Este 0 -- -- 78
2019-04-28 10:00:00 4.4 6 Sudeste 24 Noroeste 0 -- -- 88
2019-04-28 09:00:00 4.3 6 Sudeste 17 Este 0 -- -- 90
2019-04-28 08:00:00 3.8 6 Sur 25 Oeste 0 -- -- 94
2019-04-28 07:00:00 3.8 5 Sudeste 17 Oeste 0 -- -- 96
2019-04-28 06:00:00 4 4 Sudoeste 15 Noroeste 0 -- -- 95
2019-04-28 05:00:00 4.2 3 Sudoeste 12 Sudoeste 0 -- -- 93
2019-04-28 04:00:00 4.4 5 Oeste 14 Noroeste 0 -- -- 91
2019-04-28 03:00:00 4.6 6 Oeste 15 Noroeste 0 -- -- 95
2019-04-28 02:00:00 4.9 2 Sudoeste 14 Sudeste 0 -- -- 95
2019-04-28 01:00:00 5 3 Sur 10 Sur 0 -- -- 93
2019-04-28 00:00:00 5.3 2 Sudoeste 13 Noroeste 0 -- -- 92
2019-04-27 23:00:00 5.4 4 Noroeste 26 Sudoeste 0 -- -- 90
2019-04-27 22:00:00 5.9 4 Noroeste 21 Nordeste 0 -- -- 91
2019-04-27 21:00:00 6.4 9 Norte 19 Nordeste 0 -- -- 90
2019-04-27 20:00:00 6.9 9 Norte 25 Noroeste 0 -- -- 91
2019-04-27 19:00:00 7.5 6 Norte 22 Nordeste 0.4 -- -- 95
2019-04-27 18:00:00 8.2 3 Norte 20 Nordeste 0 -- -- 94
2019-04-27 17:00:00 8.4 4 Sudoeste 23 Norte 0 -- -- 92
2019-04-27 16:00:00 8.4 7 Nordeste 18 Sudoeste 0 -- -- 93
2019-04-27 15:00:00 8.1 4 Nordeste 21 Norte 0 -- -- 95
2019-04-27 14:00:00 7.8 7 Nordeste 20 Norte 0.2 -- -- 95
2019-04-27 13:00:00 7.5 4 Norte 14 Noroeste 0.2 -- -- 94
2019-04-27 12:00:00 7.6 4 Nordeste 20 Norte 0 -- -- 91
2019-04-27 11:00:00 7 7 Norte 17 Norte 0 -- -- 92
2019-04-27 10:00:00 6.5 9 Nordeste 20 Nordeste 0 -- -- 91
2019-04-27 09:00:00 5.9 6 Nordeste 15 Norte 0 -- -- 93
2019-04-27 08:00:00 5.2 4 Norte 10 Noroeste 0 -- -- 94
2019-04-27 07:00:00 5.1 2 Norte 12 Nordeste 0 -- -- 92
2019-04-27 06:00:00 5.1 2 Norte 13 Nordeste 0 -- -- 91
2019-04-27 05:00:00 4.8 2 Norte 8 Norte 0 -- -- 91
2019-04-27 04:00:00 4.6 0 Calma 6 Oeste 0 -- -- 92
2019-04-27 03:00:00 4.7 2 Sudoeste 8 Oeste 0 -- -- 89
2019-04-27 02:00:00 4.7 2 Noroeste 9 Norte 0 -- -- 89
2019-04-27 01:00:00 4.5 2 Norte 6 Nordeste 0 -- -- 91
2019-04-27 00:00:00 4.6 3 Norte 14 Norte 0 -- -- 88
2019-04-26 23:00:00 4.5 6 Norte 22 Norte 0 -- -- 89
2019-04-26 22:00:00 4.2 7 Norte 19 Nordeste 0 -- -- 90
2019-04-26 21:00:00 4.5 4 Noroeste 20 Nordeste 0 -- -- 88
2019-04-26 20:00:00 4.7 7 Norte 25 Nordeste 0 -- -- 85
2019-04-26 19:00:00 5.4 10 Nordeste 23 Nordeste 0 -- -- 87
2019-04-26 18:00:00 5.7 9 Norte 22 Nordeste 0 -- -- 87
2019-04-26 17:00:00 6.8 10 Nordeste 20 Nordeste 0 -- -- 85
2019-04-26 16:00:00 6.9 5 Nordeste 15 Nordeste 0.6 -- -- 90
2019-04-26 15:00:00 5.5 4 Sudoeste 20 Nordeste 0.8 -- -- 93
2019-04-26 14:00:00 5.1 7 Norte 24 Noroeste 2.8 -- -- 94
2019-04-26 13:00:00 6.2 6 Sudoeste 22 Nordeste 1 -- -- 93
2019-04-26 12:00:00 5.3 5 Oeste 21 Oeste 1.4 -- -- 94
2019-04-26 11:00:00 5.5 7 Oeste 27 Sudoeste 0.4 -- -- 93
2019-04-26 10:00:00 5.1 3 Noroeste 11 Noroeste 0.6 -- -- 96
2019-04-26 09:00:00 3.9 4 Sudoeste 8 Sudoeste 0.6 -- -- 100
2019-04-26 08:00:00 3.3 0 Calma 6 Sudeste 1.2 -- -- 100
2019-04-26 07:00:00 3.2 3 Sur 17 Sudoeste 2.2 -- -- 98
2019-04-26 06:00:00 4.2 4 Sudoeste 20 Oeste 0.6 -- -- 94
2019-04-26 05:00:00 3.8 0 Calma 13 Sudoeste 0 -- -- 90
2019-04-26 04:00:00 5.1 4 Sudoeste 18 Oeste 0 -- -- 82
2019-04-26 03:00:00 5.3 8 Sudoeste 28 Sudoeste 0 -- -- 79
2019-04-26 02:00:00 5.1 8 Sudoeste 25 Sur 0 -- -- 79
2019-04-26 01:00:00 5.3 7 Sudoeste 19 Sur 0 -- -- 77
2019-04-26 00:00:00 5.7 12 Sudoeste 31 Sur 0 -- -- 75